RH
75 78 78 80 80 85 94 94 90 76 68 70 73 71 69 70 66 66 71 70 64 64 66 63 64 65 64 61 62 71 76 68 60 59 60 72 76 72 71 67 68 71 72 73 76 77 78 78 77 78 82 85 88 88 85 81 77 74 73 73 72 74 76 77 80 79 77 78 79 78 78 78 76 74 69 67 72 76 76 74 75 75 73 74 75 71 70 72 70 65 65 62 61 65 71 73 72
70 75 77 81 85 88 93 91 82 70 66 69 72 69 67 68 64 63 65 65 59 61 64 63 65 68 69 64 66 68 74 85 79 74 77 77 74 72 70 68 71 73 74 75 76 77 76 75 72 74 78 79 82 83 79 74 73 71 69 71 72 71 70 75 80 77 76 77 79 80 79 79 76 77 73 70 76 77 77 80 78 75 74 76 77 75 76 76 75 71 67 62 55 56 67 74 72
67 74 78 84 89 89 93 90 79 69 64 69 71 67 67 65 61 61 63 65 61 62 62 63 66 69 67 61 68 67 72 93 93 88 85 77 71 70 68 70 73 73 73 73 73 74 74 71 69 75 78 78 78 77 74 70 73 73 71 74 74 72 70 74 80 77 76 76 79 81 80 78 77 77 76 74 77 71 71 81 83 78 75 76 78 77 78 76 76 76 72 64 55 51 62 76 76
68 78 83 87 90 88 95 93 78 68 65 69 68 64 65 61 61 67 72 72 64 62 61 62 66 72 67 63 74 73 77 92 93 90 83 77 72 66 67 70 72 73 72 72 73 74 75 73 72 77 77 77 75 74 73 70 75 76 75 77 76 76 74 74 78 78 77 78 78 80 79 77 77 77 75 75 76 71 67 76 86 84 79 78 78 76 76 77 75 76 76 75 69 58 57 71 77
71 81 85 89 92 89 93 88 73 66 68 67 62 63 64 62 68 73 77 75 64 59 62 62 66 76 73 77 84 73 78 87 86 84 74 73 69 64 66 68 69 70 71 72 73 75 77 74 73 75 75 76 73 75 75 70 75 78 78 80 79 78 76 74 75 77 79 78 76 77 78 75 76 76 73 72 72 72 66 70 85 90 85 79 76 73 72 75 73 74 77 78 78 69 62 67 74
70 81 86 87 88 86 85 77 68 69 72 69 61 64 66 66 73 73 72 72 67 61 63 64 66 72 74 86 89 81 84 80 76 73 66 68 66 63 64 64 67 66 68 71 69 72 75 73 73 75 76 76 74 77 75 70 74 78 79 79 79 78 78 78 75 77 78 78 77 75 76 75 76 77 73 69 63 66 67 66 80 89 89 81 74 73 74 76 74 75 77 75 78 77 71 68 69
68 82 86 83 83 83 81 71 71 72 74 76 67 65 67 70 72 68 66 66 66 64 65 67 66 66 73 84 83 88 88 74 71 65 60 64 63 62 59 58 60 62 66 66 66 73 77 76 77 78 79 78 74 75 76 76 77 77 77 78 79 77 79 82 77 75 78 79 79 75 74 73 76 77 74 69 58 60 68 68 78 88 91 85 77 77 78 76 75 76 75 72 74 76 76 71 68
74 85 85 79 78 82 85 75 75 75 71 77 73 67 68 72 69 63 62 62 63 62 63 66 67 65 76 82 78 90 85 67 67 60 58 59 60 62 57 56 57 60 62 62 68 77 80 79 81 80 79 79 76 75 79 81 80 76 74 78 78 75 77 81 79 76 79 79 78 78 75 72 75 77 73 69 60 59 65 67 79 89 89 83 77 79 78 76 76 75 71 70 71 71 74 74 74
82 84 84 80 73 77 85 77 74 75 72 73 72 70 70 71 67 62 62 63 63 62 65 65 64 67 79 83 80 93 86 68 64 58 58 58 61 62 59 61 60 59 59 64 76 83 83 81 83 81 77 77 76 74 77 80 81 77 70 74 77 76 75 77 78 76 78 79 79 79 76 73 75 76 71 67 63 63 62 64 82 90 87 83 78 79 77 75 74 72 70 70 70 65 66 73 76
84 82 83 78 70 74 80 76 74 74 76 72 68 69 69 69 66 64 63 65 66 65 71 68 65 71 77 80 83 93 90 74 63 58 60 61 63 62 62 63 60 58 59 70 80 83 84 82 82 78 75 76 76 72 72 78 80 76 71 72 75 77 75 75 78 78 79 81 80 76 74 74 74 74 69 65 65 65 62 69 86 88 85 84 78 77 76 75 74 71 70 71 70 64 65 75 76
81 82 83 76 70 73 73 74 77 75 76 70 67 72 68 67 67 67 68 70 72 69 71 68 69 74 76 82 87 93 91 75 60 57 61 63 65 63 60 58 60 62 66 74 79 83 83 83 83 78 76 78 78 73 70 75 78 76 71 70 74 76 75 76 80 81 81 81 79 74 73 71 71 71 66 66 66 65 68 78 87 83 81 80 76 76 75 77 75 69 69 72 71 68 73 77 70
77 81 79 76 73 74 73 73 78 75 72 64 65 74 67 64 64 67 70 70 72 68 67 68 71 72 71 78 86 93 92 76 60 56 61 65 65 60 55 56 64 70 75 78 79 85 85 86 88 78 76 80 81 76 70 71 76 77 73 71 74 75 74 76 78 80 82 82 79 75 74 72 70 67 64 67 70 70 71 74 77 77 78 77 75 75 74 76 72 67 72 74 71 71 72 69 65
77 79 73 76 79 78 75 76 78 72 68 65 70 75 67 63 65 69 70 69 70 64 65 70 71 70 70 78 86 94 91 74 59 58 65 68 63 57 57 64 73 78 81 82 83 85 84 88 91 81 74 79 83 77 71 70 74 77 76 76 76 73 74 78 77 77 82 81 78 75 73 72 70 67 63 62 72 76 70 69 71 73 76 76 77 75 74 75 69 67 71 69 68 69 67 65 67
79 80 73 77 80 77 77 79 75 68 67 70 78 79 70 68 71 73 69 66 69 70 73 74 71 69 75 84 86 91 88 70 59 64 71 68 59 56 63 71 77 81 81 82 85 85 84 87 89 83 72 73 81 78 74 73 74 77 77 78 76 74 76 77 73 73 77 75 78 78 71 68 68 69 63 61 72 74 68 69 70 71 73 73 75 73 66 64 62 64 64 62 66 68 65 65 66
82 83 73 75 76 74 78 78 71 71 72 72 80 78 72 74 73 71 67 68 76 80 76 72 68 63 70 76 77 88 85 67 64 73 75 68 59 60 69 75 79 80 81 82 84 86 87 88 86 83 73 71 80 79 75 74 74 78 81 79 76 76 76 76 73 74 74 72 76 76 71 69 68 69 67 68 70 67 67 69 69 67 66 65 66 60 53 53 57 60 62 65 68 68 65 65 66
80 79 69 74 76 73 76 75 73 78 73 71 79 73 71 75 71 70 68 70 78 79 72 69 66 60 70 76 78 87 79 69 76 79 76 71 63 65 72 76 80 81 83 81 83 88 87 88 86 80 74 74 82 81 75 76 77 80 84 80 75 77 78 78 77 78 76 72 74 74 72 67 64 71 75 71 66 66 68 64 57 51 49 52 52 49 49 52 56 59 65 68 68 67 67 67 68
77 75 71 75 75 75 76 72 75 81 75 74 78 68 68 74 73 75 71 71 76 75 73 72 69 68 75 76 74 78 75 76 82 79 75 73 69 75 81 80 80 82 84 82 84 89 85 87 85 77 74 75 81 80 75 76 78 80 85 83 79 80 79 79 78 77 71 66 69 70 66 62 67 77 77 68 66 68 62 52 45 40 40 44 46 47 50 52 56 62 67 69 68 68 68 68 69
73 73 72 71 70 74 75 70 74 79 73 73 74 66 67 72 75 76 72 74 76 75 77 75 76 79 74 66 68 79 85 85 84 83 81 80 81 88 91 85 82 84 84 81 84 86 84 86 82 76 75 76 80 81 77 75 78 81 84 87 86 84 82 81 81 78 70 66 69 69 68 72 77 76 70 67 69 66 55 46 44 43 44 46 48 49 51 54 59 65 69 70 69 68 68 67 68
68 73 72 67 65 70 72 69 72 72 70 72 73 69 68 70 72 73 72 73 71 71 79 79 81 86 79 73 80 92 95 90 90 91 88 85 83 88 93 91 89 90 86 81 82 83 84 85 82 79 78 81 85 84 81 77 77 78 79 84 87 86 86 86 86 85 81 79 80 77 78 79 75 68 63 64 65 59 50 44 43 44 46 47 48 49 52 58 62 67 69 69 68 67 66 66 67
68 72 68 66 64 67 75 73 71 71 72 73 71 71 70 71 70 70 72 70 67 66 73 75 78 85 87 88 92 95 95 94 94 93 89 82 76 82 92 94 94 96 92 84 82 82 85 85 82 84 81 82 84 81 82 80 78 77 79 83 82 82 86 86 84 83 82 82 80 76 74 71 65 62 57 55 54 51 46 43 44 44 45 45 47 50 55 60 64 66 67 67 67 65 65 65 66
70 67 59 65 69 68 76 77 74 74 74 72 71 71 71 73 70 70 69 65 64 66 69 71 75 83 89 92 93 93 94 94 94 92 89 81 80 89 94 94 94 95 90 83 82 83 85 86 85 87 84 81 80 78 80 81 81 82 82 82 79 79 81 80 77 76 75 74 71 66 64 60 57 54 49 47 47 46 47 48 50 51 51 52 53 57 60 62 64 65 67 68 67 65 64 64 64
68 65 60 67 74 73 80 84 80 76 75 73 71 69 71 71 69 70 65 59 60 63 69 70 73 81 86 88 89 91 94 93 94 94 89 85 92 96 91 89 90 89 85 85 86 83 84 87 87 87 84 82 80 78 81 82 84 84 83 82 81 78 73 71 70 67 67 66 62 58 56 53 49 46 44 44 45 46 50 52 55 59 60 61 62 64 65 65 67 67 67 68 66 65 65 63 61
59 61 69 74 79 80 87 90 82 76 73 71 70 70 71 67 67 72 64 61 62 59 63 68 71 77 79 78 81 91 93 90 91 91 88 88 95 94 85 82 85 85 84 89 88 81 84 86 87 86 84 83 80 79 81 82 82 82 83 82 78 73 68 66 62 58 60 60 56 53 52 50 46 45 45 46 48 50 52 54 58 62 65 67 67 68 68 68 68 68 67 67 66 65 63 61 60
60 58 72 80 85 89 93 91 83 78 72 70 73 71 68 64 66 71 65 63 63 57 60 67 69 72 73 67 73 89 88 81 82 84 85 88 93 89 81 78 81 82 79 86 87 81 84 84 84 85 84 83 81 80 80 79 80 80 80 78 73 69 66 62 57 54 55 56 52 51 53 53 53 54 54 55 55 56 56 56 58 62 65 66 67 67 68 67 66 66 65 64 63 62 62 60 59
64 62 75 84 88 92 93 91 87 82 75 73 74 73 73 67 65 68 65 66 66 62 63 69 71 72 75 67 68 85 89 84 83 83 85 90 92 84 79 75 75 78 77 84 89 85 85 83 82 83 82 81 80 79 77 77 77 77 76 73 70 66 61 57 54 52 52 53 52 53 57 59 62 63 64 64 64 64 63 61 61 64 65 65 65 66 65 65 64 63 62 61 60 60 61 60 59
65 71 80 84 87 92 91 91 89 86 82 77 75 80 81 71 64 66 67 68 68 69 71 73 75 77 84 78 70 81 91 85 79 82 86 90 91 86 80 71 73 81 77 81 89 89 85 81 80 81 82 80 79 77 76 78 76 74 72 68 65 60 55 54 53 53 53 53 54 56 60 63 66 68 69 69 68 67 66 65 64 63 64 63 63 63 63 62 62 61 60 59 58 59 60 61 60
76 79 82 84 87 92 91 92 92 89 86 81 78 82 83 74 66 63 68 71 69 76 81 79 79 81 85 85 75 74 82 77 70 78 88 92 94 92 83 69 75 82 77 83 90 87 79 74 76 78 80 78 74 74 74 74 71 68 65 60 57 53 52 54 55 55 54 54 55 58 63 67 71 74 75 74 73 71 70 68 65 63 61 60 61 61 60 60 61 60 59 58 58 58 59 60 61
82 77 79 84 84 90 92 92 92 87 84 84 80 79 81 76 68 64 68 73 71 76 83 83 83 84 84 84 78 71 78 82 73 73 80 84 87 89 79 67 71 74 79 89 84 77 73 68 70 72 76 75 71 71 67 61 59 59 58 55 54 54 55 57 57 55 55 54 56 62 68 73 76 79 80 80 80 78 77 74 71 67 61 58 58 58 59 60 61 60 60 58 57 56 58 60 61
80 75 78 81 79 87 94 93 93 89 88 88 81 80 81 74 71 72 69 73 76 75 80 83 83 84 84 84 79 73 80 83 74 68 70 73 76 79 72 65 66 66 76 84 73 68 68 65 67 67 70 71 68 67 60 53 53 54 55 56 56 57 58 58 57 55 55 56 60 65 70 73 76 79 82 82 82 81 80 77 75 70 61 56 57 58 59 61 61 62 61 57 55 55 58 60 60
78 75 74 75 73 81 89 91 94 90 89 92 89 90 85 73 74 78 72 74 79 76 78 80 80 82 83 84 81 79 80 76 70 67 66 70 72 74 70 66 65 64 69 72 68 65 63 63 65 64 65 67 67 65 57 52 54 54 54 54 54 56 58 57 57 58 62 66 68 70 72 75 78 80 82 82 81 79 78 76 75 71 62 56 57 58 59 61 63 63 60 56 53 54 57 60 60
77 75 70 69 70 78 82 86 93 89 88 94 95 96 90 77 76 79 77 77 76 74 76 77 78 80 80 82 80 80 78 73 73 69 65 70 71 70 71 66 62 63 65 65 66 65 60 61 63 63 64 65 66 65 58 53 55 55 52 52 53 55 58 59 62 68 74 77 78 79 79 80 81 82 82 82 80 76 75 75 74 72 66 59 56 58 59 62 65 62 59 55 54 54 55 58 59
71 72 71 72 73 76 78 81 88 85 87 95 94 95 95 85 76 78 81 79 74 72 74 75 75 76 77 79 77 78 80 77 76 71 66 71 71 67 68 66 61 61 64 63 64 63 61 61 62 63 64 64 65 64 60 55 55 56 55 53 52 54 57 61 67 73 78 80 82 83 82 83 84 84 83 81 78 75 75 74 73 72 68 61 57 58 59 63 65 61 58 55 55 56 54 55 57
68 66 67 76 78 71 72 79 84 83 88 97 96 94 96 91 81 78 80 80 75 71 73 73 72 74 73 74 75 76 82 81 75 69 66 70 71 68 65 65 61 60 63 63 61 60 61 61 61 63 64 63 61 60 60 57 56 60 61 57 54 56 59 63 68 70 74 77 80 82 82 83 83 83 82 79 75 74 74 74 73 70 67 63 59 58 59 63 65 61 58 56 56 55 54 54 55
60 66 66 75 80 71 70 76 81 84 86 92 96 94 91 91 88 80 78 79 74 70 71 71 69 71 70 70 72 74 78 77 69 64 65 69 71 69 66 64 61 61 64 64 61 58 60 62 61 63 65 65 61 58 58 57 57 63 66 63 61 62 65 70 71 71 74 77 79 81 82 82 81 80 79 77 74 73 73 74 73 68 65 63 61 59 60 64 63 61 59 56 55 54 52 54 53
45 56 57 61 71 73 71 72 79 84 86 89 95 96 88 87 90 81 76 78 72 68 69 68 67 67 69 68 68 71 73 70 63 61 63 67 71 71 68 65 61 61 65 66 62 58 58 60 61 62 65 67 65 60 57 56 57 63 68 67 66 67 69 72 72 72 75 76 77 77 78 80 80 78 77 75 74 73 73 74 72 69 66 64 63 62 63 64 62 62 61 56 55 53 52 53 53
43 49 48 49 59 69 74 73 76 82 88 94 94 93 89 87 90 81 74 75 70 67 67 67 65 63 66 65 65 69 69 66 62 60 63 66 70 72 70 66 61 60 65 68 63 57 57 57 59 61 63 66 65 61 58 57 58 62 67 68 69 70 69 69 70 71 72 72 73 72 73 76 78 78 77 74 73 73 74 73 72 72 69 66 65 64 65 64 62 63 63 58 55 52 52 53 53
49 47 47 56 63 69 77 76 79 82 88 95 90 88 89 89 90 81 73 72 68 66 66 66 64 63 64 62 63 65 64 66 63 59 62 65 69 72 71 67 62 60 63 68 65 59 56 55 56 58 60 63 61 58 57 58 58 60 63 67 69 70 67 66 66 66 66 66 67 67 68 72 76 79 80 76 72 72 74 73 73 74 71 68 66 65 65 63 61 62 63 59 56 55 54 52 51
37 37 42 59 71 74 77 77 80 83 86 91 88 89 92 89 90 85 75 69 66 64 64 65 64 63 62 61 62 63 64 69 64 59 61 65 68 70 71 68 63 60 61 66 67 62 57 54 55 56 58 59 57 56 56 59 60 59 61 65 67 66 63 62 61 59 59 60 62 64 66 68 74 80 82 80 75 72 71 71 71 72 70 68 66 64 64 62 61 62 63 61 58 56 55 52 52
27 40 41 48 68 77 79 81 82 82 87 91 90 93 94 88 89 89 79 67 63 64 63 63 64 63 62 61 61 62 66 68 65 61 60 63 67 68 70 69 63 60 61 64 67 67 62 56 56 57 57 57 56 55 56 59 61 62 64 65 63 61 59 59 59 57 56 59 63 65 65 66 70 78 82 83 81 75 70 69 69 69 69 67 65 63 63 63 63 62 62 62 59 58 56 53 53
26 40 37 43 69 73 70 82 86 83 85 86 88 94 96 93 93 91 84 74 69 69 67 66 65 63 60 60 60 61 63 65 66 63 60 62 66 67 70 69 64 62 61 63 65 67 66 61 59 59 58 59 58 54 55 59 62 64 64 63 59 58 58 58 57 57 57 59 62 63 65 65 66 74 80 83 83 77 71 68 69 69 69 67 64 63 63 63 63 62 62 62 60 60 58 54 54
26 38 37 45 70 73 69 81 85 82 81 79 85 97 98 96 97 94 89 83 77 74 71 69 68 63 60 59 58 59 59 60 63 62 59 60 64 66 68 69 67 63 59 59 60 64 65 63 64 63 61 62 62 59 57 61 65 65 63 60 57 59 63 63 59 57 56 57 59 61 63 63 64 69 76 79 79 76 71 68 68 70 69 67 64 63 64 63 63 62 62 63 61 60 56 54 55
20 34 39 44 63 75 77 80 77 77 81 78 81 95 99 95 96 95 92 87 78 73 70 68 68 65 60 59 58 57 57 56 57 56 54 56 62 65 67 68 68 64 59 56 56 60 62 62 65 67 65 64 66 65 63 64 67 66 63 61 60 62 67 68 65 62 61 62 65 65 61 60 61 65 70 72 74 75 72 69 70 69 68 66 65 64 63 63 62 62 63 64 63 60 56 54 56
16 35 48 52 65 76 78 77 73 73 79 81 85 94 98 97 95 92 92 88 75 71 68 65 69 67 59 57 57 56 56 55 55 54 50 52 59 64 66 66 66 64 61 57 55 59 62 63 64 67 68 66 67 69 68 67 68 67 66 66 66 67 69 72 72 72 72 72 71 68 62 59 59 62 65 67 69 73 73 72 73 71 68 67 65 65 65 65 65 64 65 65 64 62 58 55 57
25 52 61 61 68 74 74 73 71 70 72 80 87 94 97 97 94 89 90 89 78 72 68 65 70 68 59 56 55 55 55 53 55 55 51 52 56 60 61 61 61 64 64 61 59 60 62 64 64 64 65 67 69 72 71 70 70 69 69 70 71 71 72 74 74 74 75 74 73 69 63 59 58 59 62 64 66 70 72 72 72 71 68 66 66 66 68 69 69 68 67 66 66 64 61 59 59
49 68 63 63 67 70 70 68 69 71 69 72 79 89 96 95 93 91 91 92 88 78 69 65 68 69 62 56 53 54 53 50 51 51 50 51 54 55 56 56 58 62 66 65 64 64 62 63 64 62 61 64 68 72 73 71 71 72 73 72 71 72 73 74 75 76 76 75 74 72 66 60 58 58 59 62 63 66 69 70 70 70 68 67 67 68 70 72 72 71 70 69 68 67 65 64 63
66 67 61 65 65 65 69 68 69 75 74 69 72 83 94 95 94 95 95 96 92 79 68 62 64 69 66 57 53 53 52 51 50 47 46 49 52 52 53 56 59 60 63 65 67 67 64 63 63 62 60 61 65 69 71 71 72 73 74 71 70 71 73 74 75 76 77 77 76 74 69 62 59 58 58 60 61 64 67 67 69 71 69 68 67 67 70 72 72 73 73 71 69 68 67 66 66
63 61 63 65 63 65 70 72 72 77 76 68 70 79 88 93 95 96 94 92 87 78 74 67 62 68 68 60 55 52 50 51 50 48 46 47 50 52 54 57 60 60 60 64 69 69 67 65 62 60 60 61 65 69 70 68 69 71 71 71 72 74 75 75 74 75 77 77 76 75 71 64 61 59 59 59 60 63 65 65 67 69 68 66 66 67 69 71 73 74 74 72 70 66 64 63 65
56 58 60 58 63 67 69 76 76 77 76 70 73 79 85 93 92 90 88 84 83 82 82 75 63 64 68 62 56 52 49 49 50 51 48 48 50 54 56 58 61 62 61 62 68 70 69 68 66 64 63 63 66 69 70 68 68 70 72 73 75 77 78 77 75 75 76 76 76 75 70 64 61 60 60 61 62 65 67 68 66 66 67 66 66 67 67 69 74 77 76 76 73 67 62 59 62
53 55 50 50 68 70 67 78 77 72 73 74 75 75 81 85 74 71 82 84 84 83 81 74 63 63 67 64 57 52 49 49 51 52 49 50 51 52 55 58 61 63 61 61 65 69 70 69 70 70 66 64 63 65 68 70 69 69 72 74 75 79 80 79 78 78 78 78 77 77 71 65 62 61 59 61 65 68 71 74 70 66 66 66 66 67 68 71 74 77 77 75 73 68 63 61 61
49 49 42 43 61 69 70 80 78 69 68 73 75 73 78 76 60 56 70 81 82 77 76 71 62 63 65 62 58 52 49 50 52 52 50 50 49 49 52 54 57 59 59 61 63 66 69 68 70 71 68 64 61 59 61 65 68 68 69 71 73 78 80 80 80 80 80 79 78 78 75 71 68 65 61 61 67 73 76 78 74 68 68 67 66 67 70 72 74 76 76 76 75 69 65 64 63
46 39 37 38 45 55 61 67 67 66 69 76 78 74 73 72 68 64 62 71 79 76 76 73 63 61 60 60 59 53 50 49 49 52 50 48 46 47 49 51 53 55 56 60 61 63 66 66 68 69 68 67 65 62 60 59 62 64 66 68 69 74 77 79 80 80 80 79 78 78 77 76 74 73 72 70 72 77 79 79 73 69 69 68 66 67 69 71 74 78 80 79 79 74 70 69 67
49 37 39 42 39 43 52 57 61 67 71 75 77 72 68 66 68 69 64 67 74 74 79 79 70 65 63 65 64 55 50 47 47 50 50 47 47 46 47 48 50 53 54 56 58 59 62 64 65 65 66 67 67 67 65 62 60 59 61 64 65 70 76 78 78 78 77 77 77 78 78 78 77 77 79 79 78 79 80 79 73 69 68 68 67 67 67 69 73 79 80 78 78 77 75 75 73
51 43 42 43 38 40 52 60 63 65 63 66 70 67 65 62 58 64 68 67 67 69 75 81 79 74 68 69 67 57 51 47 45 47 47 47 48 47 46 45 48 51 52 53 54 55 57 59 61 62 63 64 65 66 66 65 62 59 58 61 64 70 74 75 74 74 74 74 75 77 78 78 77 78 81 81 81 80 79 78 74 71 70 68 68 68 68 70 72 74 76 73 73 73 73 76 76
47 47 42 38 39 39 46 58 64 62 56 58 65 65 66 67 64 70 74 68 66 68 68 73 79 78 70 69 69 60 50 46 43 42 43 44 46 46 45 44 45 47 47 47 48 50 53 56 58 60 61 61 61 62 63 64 62 59 58 59 63 69 72 71 71 72 71 71 73 74 77 78 78 79 80 80 79 78 77 76 74 73 73 70 69 69 69 70 69 69 70 69 68 67 67 70 72
37 44 40 40 52 52 48 56 61 61 58 54 58 64 64 62 63 71 73 66 65 68 67 68 70 71 68 67 68 62 53 48 45 42 42 43 44 44 43 42 43 44 45 44 45 47 50 54 57 59 60 60 61 63 62 59 60 60 57 57 62 67 70 68 68 69 69 67 68 71 74 76 76 78 78 79 78 75 73 74 75 77 78 75 74 75 74 72 69 67 66 66 65 65 63 64 66
32 38 39 42 59 64 58 57 52 54 61 55 53 57 51 49 59 68 69 66 65 67 68 68 64 65 66 65 68 68 60 53 47 44 43 41 42 42 41 41 41 41 43 44 45 47 48 51 54 56 60 62 64 66 63 57 56 56 56 56 59 64 67 66 65 68 68 65 64 68 72 75 75 75 74 75 75 72 70 73 76 79 81 81 80 80 80 77 72 66 65 66 66 66 65 64 65
27 33 39 41 49 54 54 54 44 42 53 56 55 50 39 48 69 75 73 70 65 63 63 63 62 65 69 66 66 68 64 56 49 45 43 41 41 41 40 41 40 40 42 43 45 46 46 48 50 52 56 60 64 66 65 60 56 52 52 54 56 59 63 62 61 64 66 65 65 68 71 73 74 72 70 70 71 69 68 70 73 78 81 83 82 82 83 81 74 69 68 69 67 65 65 65 65
29 36 46 45 41 40 44 52 45 37 43 49 51 43 37 55 74 75 74 69 62 61 59 58 61 67 70 67 63 64 63 58 52 47 44 42 41 40 40 40 41 43 43 43 44 45 46 47 47 49 52 56 61 64 65 63 57 51 49 50 53 56 58 58 58 59 61 63 67 70 71 71 70 68 66 68 70 70 71 72 75 79 82 82 81 81 81 79 75 75 76 75 70 66 65 65 65
Wind_Speed
3 4 5 6 7 5 2 1 1 1 0 4 3 2 3 1 3 5 7 8 7 8 7 10 16 12 3 2 4 4 5 1 2 1 2 10 18 20 18 18 18 17 16 15 14 14 12 11 10 10 9 9 10 11 12 11 10 10 9 9 8 9 9 10 10 9 10 11 12 12 12 13 14 16 16 16 14 13 13 13 14 16 16 17 17 16 16 16 17 16 14 15 16 16 15 15 15
2 4 5 7 6 3 0 2 0 2 2 4 2 2 3 2 5 7 10 7 6 10 11 16 16 6 1 4 6 5 4 3 1 1 9 19 21 19 18 18 17 17 16 15 15 13 12 11 9 9 8 6 7 8 9 9 9 9 9 8 8 8 9 9 9 9 9 9 11 11 12 12 13 14 15 15 12 12 12 12 14 15 16 17 17 17 17 17 16 15 15 15 16 16 15 15 14
2 4 6 7 5 2 1 1 0 2 4 5 3 2 2 4 6 7 7 5 9 14 16 18 11 4 4 6 4 2 3 3 3 8 15 21 19 19 19 17 17 16 16 15 14 12 10 9 8 7 6 5 5 5 7 7 8 9 9 8 7 8 9 9 9 8 9 9 10 11 11 11 12 13 13 14 11 12 13 11 13 15 16 17 16 17 17 16 16 15 15 15 16 15 15 15 15
2 4 6 6 3 1 1 1 0 1 4 4 4 3 2 5 7 6 4 6 14 17 18 18 7 4 3 5 3 3 4 2 7 12 17 19 17 19 19 18 17 15 15 13 12 10 8 7 7 7 5 4 5 5 6 6 8 8 8 7 6 7 8 8 8 8 9 9 9 10 10 10 12 12 12 12 11 12 12 11 12 14 16 17 17 16 16 16 16 16 15 16 16 15 13 14 15
2 4 5 5 1 0 0 1 0 1 3 2 4 4 2 5 8 7 6 9 14 16 17 13 5 5 6 6 3 1 4 6 10 13 17 18 18 19 19 18 16 15 13 11 10 8 7 7 7 7 5 4 4 5 5 6 8 8 7 8 7 6 7 7 7 8 9 9 9 9 10 10 10 11 10 11 12 11 11 10 9 12 14 16 17 16 16 15 16 16 15 16 15 15 13 13 14
2 4 4 3 2 1 1 2 2 3 3 0 3 4 4 6 9 11 11 10 11 14 14 8 6 9 8 7 5 5 6 6 12 16 19 20 19 18 17 17 15 14 12 11 11 9 8 8 8 6 5 5 4 5 5 5 7 7 7 7 8 7 7 7 8 8 8 9 9 9 9 10 10 10 10 10 11 9 9 10 8 10 13 15 16 15 15 15 15 15 15 15 15 14 14 14 14
2 4 3 2 2 1 1 4 4 3 3 1 2 5 6 8 11 14 13 11 10 11 9 7 11 11 7 4 6 6 4 7 13 18 20 20 18 16 15 14 14 13 11 11 11 10 9 8 7 5 5 4 3 4 4 4 5 6 7 7 8 7 7 7 7 8 8 8 9 9 9 10 10 10 10 10 10 8 8 10 8 9 11 14 15 14 15 15 15 15 15 15 14 14 14 15 15
3 3 1 0 1 2 2 5 4 2 3 2 2 4 8 10 12 13 11 8 8 9 9 11 10 8 5 3 4 4 5 11 15 18 19 19 17 15 14 13 13 12 11 11 11 10 8 7 6 5 4 3 3 4 4 4 4 4 5 6 7 7 7 7 7 8 9 9 9 9 9 10 10 10 10 10 10 8 9 10 8 8 11 13 13 14 14 14 15 15 14 14 15 15 15 15 15
4 3 1 0 2 3 3 4 4 3 4 4 4 5 8 9 7 10 10 7 8 9 9 9 5 4 7 7 7 4 7 11 15 18 18 17 15 14 13 12 11 11 12 11 11 9 7 7 6 5 4 3 3 3 3 4 5 4 5 6 6 7 7 8 8 8 9 9 10 10 9 10 10 10 10 10 10 8 9 11 8 8 11 12 12 13 13 13 14 14 14 15 15 14 15 15 14
3 3 1 0 2 5 5 4 4 3 4 5 6 7 8 5 5 7 9 8 9 9 7 6 7 9 11 8 7 4 7 12 16 18 17 16 14 13 12 11 10 10 12 11 10 8 7 7 6 6 5 4 3 4 4 4 6 5 5 6 6 7 7 8 8 9 9 10 10 10 10 10 11 10 10 10 10 8 8 10 10 9 11 12 12 12 13 13 13 13 14 15 14 14 15 14 14
2 2 2 1 4 6 5 5 5 4 5 5 6 7 6 6 7 7 8 9 8 9 9 8 10 15 13 8 6 6 9 14 17 18 17 15 13 13 12 11 11 10 11 10 9 7 7 7 7 6 5 5 4 5 5 5 6 5 5 6 6 7 7 8 9 10 10 10 11 10 10 10 11 10 10 10 9 9 8 9 10 10 11 12 12 12 13 13 12 12 13 13 13 14 14 13 14
2 1 1 2 4 4 5 6 6 5 5 6 6 4 6 9 9 8 9 9 8 9 7 5 11 14 10 8 7 8 11 14 16 17 16 15 13 12 11 12 11 10 10 9 8 7 7 7 7 6 5 5 5 6 6 5 6 6 6 6 7 8 7 8 9 10 11 11 11 11 11 10 11 10 10 10 9 11 9 7 8 10 12 12 12 13 13 13 12 12 13 12 12 13 14 15 15
2 1 1 3 3 3 5 6 6 6 5 4 3 3 9 8 6 9 10 11 8 6 4 7 16 12 8 9 9 10 12 15 16 16 15 14 13 12 11 11 11 9 9 8 8 7 7 7 7 6 4 5 5 6 6 6 7 7 6 6 8 8 8 8 9 11 11 11 11 11 12 11 11 10 9 9 10 11 9 7 8 9 11 11 12 12 12 11 12 12 12 12 12 13 14 14 14
2 2 1 3 2 3 5 5 6 6 4 3 2 5 8 4 6 10 11 11 6 5 8 13 17 10 10 10 9 12 13 16 17 15 15 13 12 12 11 10 9 8 8 7 7 7 7 7 6 5 4 4 5 5 6 7 7 7 7 7 8 8 9 8 9 11 11 12 12 12 13 13 12 11 9 9 10 10 8 8 9 9 10 11 11 11 12 12 12 12 12 12 13 13 13 13 14
3 2 1 3 3 5 3 2 5 5 4 3 4 7 7 6 10 10 7 7 6 10 12 13 12 6 9 10 10 15 16 17 17 15 14 12 12 11 10 10 9 8 8 7 7 7 8 7 7 5 4 4 5 5 7 8 8 8 8 8 8 9 10 10 10 11 12 12 13 14 13 13 13 12 11 11 10 9 9 10 10 10 11 11 11 11 12 12 12 11 11 12 13 14 14 14 14
4 3 1 2 4 5 3 3 4 4 4 4 7 10 9 8 9 6 3 6 11 13 9 9 6 2 11 11 12 19 18 18 16 15 14 11 12 11 10 9 9 9 8 8 7 8 8 8 7 5 4 5 6 6 8 9 9 9 9 9 10 10 11 11 12 12 13 14 14 15 14 13 13 13 13 12 10 11 12 12 12 13 13 13 13 13 13 12 11 11 12 12 12 13 14 13 12
4 2 1 2 2 3 3 4 3 3 5 6 9 11 10 8 6 7 7 11 14 11 7 6 1 4 14 13 17 22 18 18 17 15 13 12 12 11 10 9 8 8 8 8 8 8 8 7 6 5 5 6 8 8 9 10 10 10 11 11 11 12 12 13 13 12 14 14 15 15 15 13 13 13 12 12 12 12 14 15 16 16 15 15 14 14 13 12 12 12 12 12 12 12 12 12 11
3 1 1 2 1 1 2 3 3 3 6 8 10 11 12 10 8 11 12 12 13 11 10 8 7 10 14 16 22 20 17 18 16 15 13 11 11 9 9 9 8 7 8 9 9 8 7 7 7 7 6 7 9 10 10 11 11 11 12 12 12 12 13 14 14 14 14 15 15 15 15 13 13 13 13 13 13 14 15 16 17 16 16 15 14 13 12 11 11 11 11 11 11 11 11 10 10
0 1 1 1 0 1 1 3 4 3 7 9 9 11 11 11 13 12 9 9 12 12 11 11 14 14 16 20 21 17 17 17 14 13 11 10 10 9 9 8 7 7 8 8 9 9 8 8 8 8 8 8 9 11 11 11 12 12 13 13 12 13 14 15 15 15 16 16 16 15 14 13 13 13 13 14 14 15 16 16 16 15 14 13 12 12 11 11 11 11 10 10 10 10 9 9 8
1 1 1 1 1 1 1 3 4 3 9 11 9 9 9 11 13 11 9 10 9 10 11 13 16 17 20 22 18 17 17 14 13 11 10 10 9 9 8 7 7 6 7 8 9 9 9 9 10 10 9 9 10 12 12 12 13 13 13 14 13 14 15 15 16 16 16 16 16 15 14 14 14 14 14 15 16 17 17 16 15 14 13 12 12 11 11 10 10 10 9 9 9 8 8 7 7
2 2 1 2 1 2 1 3 5 6 11 12 10 10 9 10 10 11 14 10 5 8 11 14 20 23 23 22 19 18 16 14 13 10 9 9 9 8 6 6 6 6 7 8 9 9 10 11 11 11 10 10 11 12 13 14 14 13 14 14 14 14 15 15 15 16 16 16 15 15 15 15 15 16 17 17 17 17 16 15 14 13 13 12 12 11 11 10 10 9 8 8 7 7 7 7 7
2 2 3 3 2 2 0 4 6 10 12 12 12 10 10 11 9 14 16 5 3 11 13 14 22 26 25 24 20 17 16 15 12 10 10 9 8 7 6 6 6 7 8 8 9 10 11 11 11 11 11 12 11 12 13 14 14 14 14 15 14 14 15 16 16 17 17 16 16 16 16 16 17 17 18 17 16 16 15 14 13 12 12 11 11 11 10 10 9 8 7 6 6 6 6 7 7
3 1 1 3 2 2 2 7 8 12 14 12 12 10 11 11 9 14 11 2 2 14 15 16 22 25 25 24 21 18 16 15 12 11 10 8 7 6 6 7 7 7 8 8 9 11 12 12 12 12 13 13 12 13 13 14 14 14 14 15 15 16 16 17 17 18 17 17 17 17 17 17 17 17 17 16 15 14 13 12 11 11 10 10 10 10 9 9 8 8 7 6 6 6 6 7 7
5 1 2 3 4 2 3 7 7 10 13 12 12 12 12 10 9 12 5 2 6 15 15 17 22 23 24 23 20 18 16 14 12 10 9 7 6 6 6 7 7 7 8 9 10 11 13 13 12 12 13 13 13 14 14 14 14 14 15 15 16 17 17 17 17 17 17 17 18 18 17 17 16 16 15 14 13 12 11 10 9 9 8 8 8 8 8 8 8 8 7 7 6 6 7 7 8
6 2 2 3 4 4 5 6 6 9 12 13 12 10 8 7 10 11 4 3 12 16 16 18 22 22 22 21 20 17 15 13 11 9 8 7 6 7 6 7 8 8 9 9 9 12 13 13 13 13 14 14 14 15 15 15 15 15 16 16 17 17 17 17 17 18 18 18 18 17 17 16 15 15 14 13 12 10 9 8 8 7 6 6 6 7 7 7 8 8 7 7 7 7 7 8 9
3 2 3 4 4 4 6 7 7 8 11 11 11 7 5 9 12 7 4 9 15 16 18 20 22 22 20 19 18 16 14 13 11 9 9 7 7 7 7 8 9 9 10 9 9 11 13 13 14 14 15 14 15 15 16 16 15 15 16 17 17 17 18 17 17 18 18 18 17 17 16 15 14 14 12 12 10 9 8 7 6 5 5 5 5 5 6 6 7 7 7 7 7 7 8 9 10
5 6 6 6 5 5 6 8 7 7 7 6 9 6 4 9 9 4 7 15 17 17 19 21 22 21 19 18 17 15 13 12 10 9 9 8 8 8 8 10 10 9 10 9 9 11 13 15 15 15 15 15 16 16 16 16 16 16 16 17 17 17 17 16 16 17 17 17 17 16 15 14 13 12 11 10 9 8 7 5 5 4 4 4 4 4 5 6 6 7 7 7 7 7 7 8 10
9 9 7 6 6 6 6 7 6 6 4 4 9 7 3 6 5 4 13 19 19 19 19 20 20 19 19 18 17 15 14 12 10 9 9 9 9 9 9 10 11 10 10 9 10 12 14 16 16 16 16 16 17 17 17 18 17 17 17 17 17 16 16 16 16 16 17 17 16 15 13 12 11 11 10 10 9 7 6 5 4 4 4 4 4 4 4 5 6 7 8 8 8 7 7 8 9
7 5 3 4 4 5 5 5 4 4 3 3 6 5 2 6 3 5 18 21 20 20 19 19 19 18 18 17 17 16 14 13 11 10 9 9 9 8 9 10 11 10 10 10 11 14 16 17 17 17 17 17 17 17 19 19 18 17 17 16 16 16 16 16 16 17 17 16 15 13 11 10 10 9 9 8 8 7 6 5 4 4 5 5 4 4 3 4 6 7 8 8 8 7 8 9 10
4 2 1 2 2 2 3 4 5 4 1 1 2 2 5 8 3 8 21 23 21 20 18 19 18 17 17 17 17 16 16 14 12 10 8 8 8 9 9 10 10 11 11 12 14 15 17 19 18 18 17 17 17 17 19 20 19 18 18 17 17 17 16 17 17 16 15 14 13 12 11 9 9 9 8 7 6 6 6 5 4 4 5 5 5 3 3 4 6 7 7 8 8 7 7 8 9
2 1 1 0 1 1 2 2 6 2 4 3 2 3 5 8 6 12 22 24 23 20 18 18 17 17 17 17 17 16 16 15 13 11 8 7 8 9 10 11 11 11 12 14 15 16 18 19 19 18 18 17 17 17 19 20 19 18 18 17 17 17 17 17 16 15 14 13 12 11 10 9 9 8 7 6 6 6 6 6 5 5 5 5 5 3 2 3 5 6 7 7 8 7 6 6 7
1 1 1 1 1 1 0 3 6 4 5 4 4 3 2 6 8 14 20 23 23 20 19 18 17 17 17 17 17 16 15 15 14 13 10 8 8 9 10 12 12 12 13 14 15 17 18 19 19 18 17 17 17 17 19 19 19 19 18 17 17 17 17 17 15 14 12 11 10 10 9 9 8 7 7 7 7 7 7 7 6 5 5 5 5 3 2 3 5 6 6 6 6 7 5 4 6
0 2 1 0 1 1 1 3 5 6 4 3 6 3 1 3 9 15 19 21 20 18 18 19 18 17 17 18 17 15 14 15 15 14 10 9 9 10 11 13 13 13 14 14 15 17 18 19 19 18 17 17 17 18 19 19 19 18 17 17 17 17 16 15 13 12 10 10 9 9 8 7 6 6 6 6 7 7 7 7 6 5 5 5 5 4 2 2 4 6 6 5 5 5 5 4 5
1 1 1 1 1 1 1 1 4 7 8 6 7 5 2 1 9 15 19 21 20 17 18 19 18 17 17 17 16 15 15 16 16 14 11 9 10 10 11 13 14 14 14 14 15 16 18 18 19 19 18 17 17 18 19 19 19 17 17 17 16 16 14 12 11 10 9 9 8 7 7 6 5 5 5 5 6 6 7 7 6 6 5 5 5 4 2 1 4 6 6 5 5 5 4 3 4
1 0 1 1 2 2 2 1 3 7 8 8 7 7 4 2 8 13 18 21 20 18 18 18 18 18 18 17 15 15 17 17 16 13 11 10 10 11 12 13 15 15 15 14 15 16 17 18 19 19 18 17 17 17 18 19 18 16 16 16 15 14 12 11 10 10 10 9 8 6 6 6 5 5 5 5 5 6 6 6 6 6 5 5 4 4 2 1 3 5 6 5 4 5 4 3 3
3 2 1 2 2 1 1 1 2 5 7 7 8 8 5 5 10 12 17 20 19 17 17 17 17 17 18 18 15 15 18 18 16 14 12 11 11 12 13 14 15 16 16 15 15 16 17 19 20 20 19 18 18 18 18 18 17 16 15 15 14 13 12 11 11 11 10 9 8 6 6 6 5 5 5 5 4 5 6 6 5 5 4 4 4 3 2 0 1 4 5 4 4 4 4 3 3
3 2 2 3 2 1 0 0 1 3 4 5 8 8 5 7 9 9 15 19 17 17 17 16 17 16 18 18 16 17 19 17 16 15 13 12 12 13 14 15 16 17 17 16 16 17 17 19 19 20 19 19 19 18 18 18 17 16 15 15 13 11 11 11 11 11 10 9 8 7 6 6 5 5 5 4 4 4 4 5 4 3 3 3 4 3 2 2 1 2 4 4 4 5 4 3 3
7 5 3 2 1 0 1 0 2 2 2 2 6 6 6 8 8 6 12 17 17 19 19 18 18 18 18 18 19 20 18 16 17 17 14 13 13 14 16 16 17 18 18 17 17 17 18 19 19 19 19 19 18 18 17 16 15 15 14 13 12 11 10 10 10 10 10 9 7 6 5 5 4 4 4 4 3 3 3 3 3 2 2 2 3 3 3 3 2 2 3 4 4 5 5 3 3
5 3 2 2 0 1 1 0 2 3 1 1 5 6 5 7 7 5 9 15 18 19 19 19 20 20 19 19 20 21 17 16 18 17 16 15 15 16 17 17 17 18 18 18 18 17 18 19 19 19 18 18 18 17 16 15 13 13 12 11 10 10 10 10 9 9 9 7 6 5 4 4 4 4 3 3 2 2 1 2 2 2 2 2 3 3 4 3 3 3 3 4 5 5 5 3 3
3 2 3 2 1 2 1 1 3 3 2 0 5 6 3 4 5 3 4 8 11 13 14 16 18 21 22 21 22 22 20 18 19 18 18 17 17 18 18 18 17 18 19 20 19 19 19 19 19 19 19 18 18 17 16 14 13 13 12 12 11 10 10 9 9 8 7 6 5 4 3 3 4 4 4 3 2 2 2 2 2 3 2 2 3 4 4 4 3 3 3 4 5 5 5 4 4
4 4 5 3 3 3 1 2 3 3 3 1 3 4 2 4 6 4 4 3 5 8 11 13 15 20 24 22 22 24 23 22 20 19 20 19 19 19 19 18 18 19 20 20 21 21 20 20 19 19 19 18 18 17 17 15 14 14 14 13 13 12 10 9 8 8 6 5 4 3 3 3 4 5 5 4 3 3 3 3 3 3 3 2 3 4 4 4 4 4 4 5 5 5 5 5 5
4 4 6 5 4 5 4 5 3 2 2 3 4 3 2 4 7 7 6 6 8 9 11 14 14 17 22 22 22 25 25 25 24 22 21 21 21 20 19 19 19 20 21 20 21 20 20 20 19 19 19 18 18 17 17 16 15 15 15 14 14 12 11 10 9 7 5 4 3 2 3 3 4 5 6 5 4 4 4 3 3 3 3 3 3 4 4 4 4 5 5 5 5 5 6 5 4
4 2 4 5 6 7 7 6 3 1 1 2 4 3 1 1 6 8 8 11 14 12 12 15 14 15 21 22 23 26 27 26 25 24 24 23 23 22 21 19 19 21 21 20 20 20 19 19 19 19 19 19 18 18 18 17 16 15 15 14 13 12 11 9 8 6 4 3 3 3 3 4 5 5 5 5 4 4 4 3 3 3 3 3 4 4 4 4 4 5 5 5 6 6 6 5 4
2 1 4 7 8 7 7 5 2 1 1 2 4 2 1 2 5 7 9 12 15 14 13 13 13 16 20 22 24 27 29 28 27 26 26 27 26 24 22 20 18 19 21 22 21 20 19 19 19 19 19 19 19 19 19 18 17 16 15 14 13 11 10 8 7 5 5 4 4 4 4 4 5 5 5 5 5 5 4 4 3 3 4 4 4 4 4 4 4 5 5 6 6 6 6 5 4
1 4 6 7 7 6 5 3 1 0 2 3 5 4 2 3 2 5 9 11 13 16 16 15 15 16 19 22 24 27 30 30 29 28 28 29 28 25 22 20 18 18 20 22 21 20 19 19 19 19 19 20 19 19 19 19 18 17 16 14 13 11 9 8 7 6 5 5 5 5 5 5 5 5 5 5 5 5 4 4 4 4 4 4 4 5 5 5 5 5 6 6 6 7 6 6 5
6 10 11 9 7 5 3 1 0 1 2 4 5 8 4 3 3 6 9 10 12 13 15 17 18 17 19 22 24 27 30 31 31 29 29 30 29 25 23 21 20 18 19 21 21 20 19 20 20 20 20 20 19 19 19 20 19 18 17 16 14 12 10 9 8 7 6 6 5 6 6 6 6 6 6 6 6 5 5 5 5 5 5 5 5 5 5 5 5 6 6 7 7 7 7 7 7
13 13 11 9 6 4 3 1 1 1 3 3 2 8 6 2 3 7 8 8 11 11 10 14 17 16 18 23 26 28 31 32 32 31 31 31 29 27 25 24 22 20 19 21 22 20 20 20 20 20 20 20 19 19 19 20 20 19 18 16 14 12 10 9 9 8 7 6 6 7 7 7 6 7 7 7 7 6 6 6 5 6 6 6 6 6 6 6 6 6 7 7 8 8 8 8 8
11 7 7 6 3 2 1 1 0 2 2 2 2 5 7 4 3 6 8 6 10 13 10 12 17 18 19 23 27 29 32 33 33 33 33 32 32 30 29 27 25 23 21 21 22 21 21 20 20 20 20 20 20 19 19 19 20 19 18 17 15 13 12 10 10 9 8 7 6 7 7 8 7 7 8 8 8 7 7 6 6 7 6 6 6 7 7 7 7 7 7 7 8 8 8 8 8
6 5 7 4 1 1 2 0 2 3 2 2 2 2 4 5 5 7 10 8 10 16 16 19 23 22 21 25 29 31 32 33 33 35 35 34 34 33 31 30 28 26 23 21 22 22 22 21 20 20 20 19 20 20 19 19 19 19 19 18 17 15 13 12 10 10 10 9 7 7 8 8 8 8 9 8 8 8 8 7 7 8 7 7 7 7 7 7 8 8 7 7 8 8 8 8 8
7 7 6 5 3 3 3 1 2 3 2 0 1 2 3 4 4 7 12 13 15 21 24 28 28 26 26 28 31 33 33 33 34 36 37 36 36 33 32 31 29 27 25 23 22 22 22 22 21 20 20 19 19 19 19 19 18 18 18 19 18 17 15 13 12 11 11 10 9 8 8 9 9 8 8 8 8 8 8 8 8 8 8 8 7 8 8 8 8 9 9 8 8 8 8 8 8
6 3 2 4 4 2 2 2 2 2 1 1 3 3 3 2 1 3 8 14 19 23 25 28 27 28 32 31 30 32 33 33 35 36 37 37 36 33 32 31 29 27 26 24 24 23 22 22 22 21 21 20 19 19 18 18 18 18 18 18 18 17 16 15 14 13 12 11 10 9 9 9 9 9 8 7 7 8 8 9 9 9 9 8 8 8 9 9 9 9 10 9 9 9 9 9 9
2 1 2 3 1 1 1 1 1 0 1 2 3 3 3 2 1 2 4 9 15 19 21 25 23 22 26 27 27 30 33 34 36 37 37 37 36 34 33 31 30 28 27 26 24 23 23 23 23 22 21 21 20 19 18 17 17 18 18 18 18 17 16 15 15 13 12 11 10 9 9 9 9 9 8 7 7 8 9 9 10 9 9 9 9 9 9 9 9 10 10 11 10 10 10 10 9
2 2 3 1 0 1 0 1 1 1 3 2 3 3 2 1 3 4 5 6 11 14 17 22 23 18 19 22 26 31 34 35 36 37 38 38 37 36 34 31 31 30 28 26 24 23 22 22 23 22 22 21 21 20 18 17 17 17 18 18 18 17 16 15 14 12 12 11 10 9 9 9 9 9 8 8 8 8 9 10 10 10 9 9 9 9 9 10 10 11 11 11 11 11 11 11 10
3 3 2 2 2 0 1 1 1 2 4 2 2 5 3 1 2 3 6 9 11 13 15 19 22 21 19 20 25 32 36 36 37 37 37 37 37 36 35 33 31 30 28 25 23 22 21 21 22 22 22 22 21 20 19 18 17 17 18 18 17 16 15 15 13 12 11 12 11 10 10 10 10 10 9 9 9 9 10 10 10 9 9 9 9 9 10 11 11 11 11 11 10 11 11 11 11
1 3 2 0 2 2 1 1 2 2 4 3 2 3 3 4 3 2 6 11 11 12 14 16 20 24 22 19 23 30 34 35 36 37 37 37 38 37 35 33 32 30 29 26 23 22 22 22 22 22 22 22 21 20 19 18 18 18 18 18 17 17 16 15 14 12 12 13 12 11 11 11 11 11 11 11 10 11 11 10 9 9 9 9 9 10 10 11 11 11 10 10 10 10 10 11 11
3 4 2 3 1 2 1 0 2 3 4 4 2 2 2 3 1 1 5 8 10 12 13 14 20 25 23 20 20 24 31 35 36 37 37 38 37 37 36 34 33 31 29 28 26 24 23 22 22 22 22 22 21 21 20 19 19 19 19 18 17 17 16 16 15 15 14 13 12 12 12 12 12 12 12 11 11 11 11 10 9 9 9 9 10 10 10 10 10 10 9 9 10 10 10 10 10
2 3 1 1 1 2 2 1 3 4 4 4 4 5 2 2 2 4 6 6 8 12 12 13 18 22 23 24 22 23 29 34 36 37 38 37 37 36 36 35 34 32 30 30 28 26 25 24 23 22 22 22 22 22 21 20 20 20 19 18 18 17 17 17 16 16 16 14 13 13 12 13 13 12 12 12 11 10 10 10 10 10 10 10 10 10 10 10 10 10 9 9 10 10 10 10 10
1 1 1 1 2 2 2 2 3 4 5 4 5 6 3 3 3 5 5 5 6 10 12 12 14 19 24 26 26 26 29 32 35 37 38 37 37 36 36 35 35 34 33 32 31 29 28 26 24 23 22 22 23 23 22 21 21 21 20 19 18 17 17 17 17 17 17 16 14 13 12 13 13 13 12 11 11 10 9 9 9 10 10 10 10 10 10 10 10 10 9 9 10 10 10 10 11
Wind_Direction
89 49 21 20 11 1 11 238 166 79 210 102 95 111 109 78 125 123 127 132 128 157 152 134 149 152 161 170 146 92 51 146 191 302 100 125 140 146 150 154 156 162 165 161 158 155 154 149 146 143 132 132 127 123 120 120 124 125 121 119 123 121 119 117 114 114 110 107 106 107 108 108 108 109 111 116 122 124 121 121 118 116 119 119 116 112 108 104 102 102 100 98 99 100 99 99 99
67 20 6 10 11 13 52 266 205 110 133 111 99 97 100 137 155 139 143 146 131 155 150 138 146 144 108 122 126 108 65 25 286 131 119 135 142 146 151 153 156 159 159 155 152 151 150 144 143 135 126 121 111 110 110 117 123 121 122 129 135 130 129 123 120 121 115 110 110 111 109 109 110 112 116 121 125 122 120 120 119 120 121 120 118 113 109 106 103 101 101 98 97 99 99 99 98
28 358 355 3 12 25 348 306 146 142 131 118 115 101 133 160 151 138 141 124 126 146 143 140 142 114 114 121 114 63 59 27 133 133 133 141 145 147 149 152 156 156 153 150 148 147 143 138 133 122 121 116 106 104 105 124 127 121 122 129 138 136 136 129 122 122 120 116 113 112 111 112 113 115 120 124 124 121 124 124 122 124 123 121 117 114 111 108 106 103 100 99 99 101 100 98 98
24 4 359 359 5 30 336 90 51 156 128 121 127 132 169 146 131 118 109 112 135 144 141 144 135 91 101 100 82 46 77 116 136 134 141 145 147 149 149 153 157 154 151 148 145 140 134 135 130 125 130 122 114 112 113 129 125 121 124 128 138 136 137 134 127 125 125 122 118 114 113 117 116 117 121 124 124 126 129 127 127 126 125 122 117 114 111 108 107 106 102 101 100 100 99 98 99
20 10 7 3 348 116 64 115 38 116 113 119 130 139 147 126 122 111 101 117 139 146 145 147 125 101 88 68 44 77 108 135 145 141 145 147 149 151 151 154 156 155 150 145 143 137 136 140 135 135 135 126 125 123 120 126 125 126 129 136 138 130 132 135 135 132 129 126 124 121 119 121 119 120 124 124 122 125 130 130 129 126 124 120 117 116 112 109 108 108 105 102 99 99 100 97 95
349 3 9 27 62 93 135 132 123 103 76 39 125 128 134 129 127 116 111 112 132 147 146 138 124 120 96 67 52 96 122 142 152 147 146 149 151 151 151 154 156 156 151 147 146 139 139 137 133 134 130 128 131 126 121 125 132 137 138 140 134 130 132 134 138 136 133 131 129 125 123 124 122 125 126 122 118 121 129 131 130 125 124 120 117 116 113 110 108 107 103 101 100 98 97 94 91
338 3 11 47 88 59 116 117 109 100 69 344 115 130 137 135 132 123 122 121 128 145 144 129 127 117 95 84 77 89 131 158 156 149 149 150 150 149 148 154 155 156 152 147 142 133 129 126 127 127 123 126 127 124 126 133 139 147 147 141 135 136 136 132 135 137 135 135 131 127 128 127 127 129 124 118 117 128 132 129 135 132 124 119 116 115 113 111 109 105 99 99 99 97 97 97 94
15 10 327 10 119 60 92 109 97 90 75 54 92 126 136 140 139 131 133 132 140 148 140 136 131 104 83 105 98 87 131 156 159 150 150 149 149 148 147 154 155 155 150 143 135 125 123 124 123 117 115 113 122 125 130 140 147 158 151 143 139 139 141 135 134 138 137 139 136 133 133 130 129 126 121 116 119 138 139 131 140 137 122 113 113 113 111 111 109 103 97 95 95 98 100 98 95
25 15 273 29 119 106 106 107 100 86 79 100 104 114 131 139 135 130 132 122 134 135 133 149 148 108 107 101 100 103 130 154 160 152 151 149 149 148 149 155 154 152 146 138 128 122 126 123 112 100 93 92 116 123 130 144 148 160 155 149 141 140 144 138 139 140 138 142 141 138 135 130 125 119 121 122 123 138 138 135 138 124 112 106 108 111 111 111 109 103 98 94 94 99 98 97 98
9 21 348 165 124 125 128 114 110 94 87 102 108 126 138 141 117 116 125 121 129 123 119 133 119 121 122 102 98 114 134 152 159 154 151 149 149 149 152 153 150 147 141 135 126 127 134 121 106 99 94 105 125 124 140 148 144 157 153 146 140 139 140 136 141 141 141 145 142 138 134 127 121 121 126 124 126 132 127 130 127 113 108 106 107 110 111 111 107 100 97 98 98 100 99 100 100
334 20 2 155 136 137 138 124 120 108 105 109 111 132 149 145 121 105 112 116 119 119 124 120 113 120 116 100 105 127 136 150 160 155 149 148 150 152 153 148 145 144 139 132 128 132 133 120 109 111 115 125 130 121 135 142 135 148 144 139 133 131 133 134 141 142 142 144 141 137 133 127 124 126 122 117 123 120 109 112 114 111 110 109 111 112 112 111 107 99 96 101 102 101 101 101 96
340 20 349 134 133 132 131 128 127 117 117 127 128 148 162 153 136 125 121 117 120 125 130 140 135 126 109 108 123 139 140 149 159 153 147 149 151 153 152 146 143 141 134 129 129 130 126 117 108 114 121 123 121 113 122 130 131 138 136 133 125 127 132 135 143 142 140 140 138 136 134 130 126 121 111 114 118 107 104 113 116 115 111 110 113 113 113 113 108 100 96 96 95 95 99 100 97
4 11 24 111 116 122 128 131 130 127 127 131 125 153 157 153 139 134 126 120 124 123 111 143 145 129 104 119 132 145 147 153 158 151 147 151 153 151 148 143 138 133 130 128 129 128 122 116 113 116 121 121 120 116 122 128 130 132 133 131 124 129 132 135 143 140 138 138 136 134 133 130 122 114 110 117 112 104 114 126 124 123 119 117 116 114 114 111 105 100 98 95 93 98 103 103 96
24 358 31 109 130 133 125 131 142 142 137 123 105 143 145 124 123 128 123 118 106 113 120 138 140 120 116 129 143 157 158 159 157 151 151 153 151 146 145 140 133 132 132 134 129 125 121 118 118 117 123 126 122 120 121 125 130 130 132 133 129 132 132 136 142 136 137 138 133 130 132 129 121 119 119 110 101 105 121 125 125 128 129 127 120 116 115 112 106 103 100 100 101 105 109 104 93
22 356 42 119 144 143 126 138 148 138 136 146 141 141 116 96 129 120 110 110 98 123 126 137 137 118 151 156 162 165 163 161 156 153 154 151 148 146 147 140 136 140 137 137 131 125 122 120 120 123 139 132 119 121 123 125 128 127 130 134 134 134 131 134 137 135 137 136 132 130 132 131 125 122 112 101 100 110 118 120 126 131 133 132 124 117 114 111 108 105 103 103 103 104 104 98 89
10 345 22 120 149 157 153 152 146 132 146 158 148 141 106 104 130 101 88 120 122 132 125 139 142 132 163 159 156 162 161 157 155 156 156 152 152 151 150 145 144 144 138 140 132 123 121 115 115 125 145 127 115 120 126 126 126 127 131 134 134 131 129 129 131 134 136 134 134 132 130 127 120 112 103 105 113 114 113 115 119 124 129 128 122 117 113 110 109 108 108 106 102 99 97 93 86
356 328 6 94 142 162 168 173 165 144 148 146 154 154 126 120 116 92 115 122 124 131 118 128 103 134 152 153 154 156 155 155 156 158 158 156 154 154 152 149 150 147 138 138 129 119 117 114 116 128 137 120 115 118 122 123 125 129 131 130 128 125 125 126 127 131 132 133 133 129 126 121 113 108 109 115 114 108 109 110 111 114 117 118 117 114 112 111 110 110 108 103 99 96 93 88 83
352 324 36 77 115 137 184 176 137 146 155 150 162 161 142 138 128 119 119 112 117 111 101 103 91 122 146 152 153 152 152 155 157 157 158 159 156 154 154 150 154 149 136 134 126 120 116 118 124 132 133 119 116 116 118 121 122 126 127 124 122 123 125 126 128 129 131 132 130 126 125 123 119 118 118 117 111 109 109 108 110 111 112 113 113 111 110 111 111 110 106 100 98 94 89 84 79
12 345 19 75 108 86 144 146 132 161 158 147 159 160 150 142 138 140 131 125 130 114 106 109 107 120 139 148 151 150 152 155 157 159 159 161 162 159 159 156 155 148 139 136 130 126 120 120 125 130 130 121 118 115 118 121 120 123 123 119 119 124 124 126 128 130 132 133 131 129 127 125 123 121 117 114 112 111 109 109 110 109 110 111 111 111 110 112 111 108 103 99 95 89 85 78 71
199 235 328 80 312 282 208 174 172 169 153 148 155 156 148 142 144 149 137 138 149 139 137 134 129 135 143 147 152 152 154 157 159 163 164 165 168 167 164 161 155 150 145 139 132 127 121 121 124 127 127 124 122 119 120 120 118 121 120 117 119 122 121 123 125 127 129 129 128 127 123 122 121 117 114 113 111 109 107 107 106 105 106 106 107 108 108 109 106 102 96 91 87 83 80 71 61
182 218 298 44 350 275 206 199 188 156 154 148 147 149 143 146 151 148 141 141 168 173 163 152 149 149 149 152 155 157 157 158 161 165 168 172 173 169 167 162 154 151 148 140 131 126 124 122 123 125 126 127 125 122 123 122 121 122 119 117 118 119 118 120 122 124 125 124 123 121 119 119 118 116 115 113 112 110 109 108 106 105 103 104 105 105 105 102 98 95 89 84 80 76 68 60 55
199 230 296 350 316 282 254 221 188 153 152 142 146 153 147 148 153 156 156 152 188 181 174 160 156 155 155 157 157 160 160 161 165 168 172 178 174 169 168 162 154 150 147 140 131 128 128 126 126 125 125 127 126 124 122 122 123 122 119 119 120 119 119 120 121 122 122 122 121 120 120 119 118 117 117 116 114 113 112 111 109 107 106 107 106 103 100 96 92 89 82 78 71 61 51 49 51
232 245 329 0 338 308 210 207 185 155 152 147 152 152 146 149 153 166 168 343 204 174 168 161 161 160 159 160 159 161 163 166 170 174 181 181 174 172 168 160 155 152 147 140 133 131 130 130 129 125 123 125 126 125 122 123 124 122 121 121 122 121 120 119 119 120 121 122 123 122 122 121 120 119 119 118 117 114 113 113 112 112 111 108 104 99 94 88 83 75 64 55 47 43 43 47 52
237 315 54 46 37 39 161 184 173 155 152 148 149 147 151 155 155 169 179 349 171 167 164 164 163 163 164 162 162 164 165 169 174 181 187 183 179 176 169 161 158 154 149 144 137 134 133 132 130 126 124 125 127 127 126 126 124 123 122 122 123 122 120 119 119 121 122 124 124 124 124 124 122 121 120 119 116 114 113 114 115 115 112 104 97 91 86 81 71 60 51 43 41 46 55 62 65
225 263 61 58 47 69 120 140 136 138 143 142 141 137 153 166 159 164 162 133 160 163 163 165 163 164 167 165 164 166 168 170 175 182 186 187 186 179 172 165 161 159 153 148 141 136 135 134 132 130 130 129 130 131 130 128 126 125 125 125 125 124 123 123 123 123 124 126 126 127 127 126 123 121 118 116 115 114 114 115 115 115 110 100 90 85 81 74 63 53 51 52 55 60 68 75 76
195 166 80 71 56 71 105 110 107 119 130 138 132 112 126 157 155 152 146 155 162 162 159 162 165 165 168 170 168 168 171 174 178 184 187 190 190 184 177 169 164 162 158 150 143 140 137 136 136 135 135 135 135 132 130 129 128 129 128 127 126 125 126 124 125 125 127 129 130 130 129 125 122 118 116 114 114 114 114 114 113 113 109 100 91 87 80 68 59 55 56 59 63 67 74 79 80
128 127 91 74 66 69 97 101 93 101 117 135 131 109 103 150 162 165 162 166 164 156 154 161 165 167 171 175 175 175 176 178 185 193 189 190 193 187 179 172 169 165 160 151 146 144 140 139 139 138 137 137 137 133 132 130 129 130 128 126 126 126 125 125 126 127 129 131 131 130 126 123 119 116 114 113 113 113 114 112 111 111 111 112 104 94 81 69 61 57 59 62 65 69 74 79 81
128 125 92 72 73 69 73 92 88 87 95 103 120 110 91 159 192 184 162 166 166 158 156 163 165 168 174 178 181 185 185 185 195 205 206 204 200 193 182 173 172 167 160 154 150 147 143 141 141 140 139 139 138 135 134 132 130 129 127 127 127 127 127 128 129 129 130 131 131 129 125 123 119 114 112 109 110 111 110 107 106 111 121 128 121 108 86 68 61 57 58 62 67 73 78 80 79
134 133 90 82 87 72 55 74 64 57 94 76 102 111 168 189 200 163 164 165 165 162 160 165 167 170 176 181 188 191 193 195 201 213 221 219 211 204 187 173 174 170 162 158 152 147 145 145 143 142 141 140 139 136 135 135 134 132 131 132 131 130 131 131 132 131 132 132 132 132 131 127 121 116 110 105 106 108 110 109 107 116 133 141 137 124 89 64 59 56 53 57 67 78 84 85 84
137 129 118 114 107 90 43 64 58 39 172 9 41 180 199 189 168 161 168 166 163 162 163 168 170 172 177 183 191 196 200 202 204 213 220 217 212 206 191 178 174 171 167 161 154 151 150 148 146 144 142 141 141 139 138 138 138 137 137 138 136 135 135 135 135 135 135 135 136 137 136 132 124 118 112 107 109 113 118 120 119 126 141 151 153 138 89 64 56 50 49 57 72 82 86 87 86
128 141 160 35 324 118 37 99 102 82 254 277 308 243 198 177 164 166 169 168 167 164 166 173 173 175 180 185 194 200 205 208 208 213 218 211 205 202 195 183 174 171 170 164 158 156 154 151 150 148 145 144 145 142 141 142 141 140 141 142 141 140 139 139 139 139 140 138 138 139 137 130 124 120 115 114 116 120 124 125 125 132 148 164 168 154 101 68 49 43 49 61 72 74 77 82 79
83 234 187 29 302 173 81 150 159 197 231 239 239 237 181 168 166 167 171 172 171 167 168 174 177 180 183 187 196 202 206 211 211 215 218 209 204 200 195 186 176 171 169 166 164 161 158 156 153 151 149 148 148 146 145 145 144 143 143 143 144 144 143 144 145 145 145 144 142 140 136 128 124 122 120 119 118 118 121 121 120 127 146 166 172 163 129 73 42 39 47 57 63 62 67 74 66
100 277 304 72 215 257 187 154 192 199 167 219 244 239 93 156 165 167 174 175 173 171 169 175 180 182 186 190 196 200 203 210 213 216 215 207 204 199 195 189 179 172 169 168 167 163 162 160 156 154 152 150 149 148 148 149 148 146 145 146 147 147 147 148 150 150 149 146 139 135 130 125 123 124 124 121 117 115 114 112 113 123 138 157 166 165 152 74 40 38 41 43 44 51 64 65 57
171 230 302 227 236 275 262 141 188 186 173 204 234 248 304 135 159 167 176 178 176 174 172 177 182 182 189 192 195 199 204 210 212 212 211 205 202 200 194 189 182 174 169 169 167 165 165 163 159 156 155 153 152 150 150 151 152 151 149 151 151 150 149 150 153 154 151 144 134 126 118 115 117 119 123 118 114 112 109 106 109 119 131 145 155 160 160 72 43 38 34 32 28 35 51 47 42
81 116 315 270 232 233 278 311 167 179 192 199 203 232 264 135 156 170 176 179 180 180 177 178 183 185 189 193 196 199 206 212 213 213 211 204 201 201 195 189 186 178 171 169 167 166 167 166 162 160 159 159 157 155 155 155 157 157 156 155 155 153 152 155 158 159 154 146 136 127 115 109 108 111 114 109 108 108 106 106 107 113 123 137 148 157 163 69 39 31 27 28 22 24 31 26 20
36 44 325 311 290 235 288 322 162 186 206 200 197 215 224 165 169 176 177 180 183 182 177 178 186 188 190 195 197 200 208 214 215 214 212 207 202 201 196 191 188 182 177 172 169 168 169 168 166 164 165 164 163 162 161 161 162 161 160 159 158 157 157 159 162 162 158 149 138 129 119 112 106 107 104 97 103 106 104 106 105 107 117 137 151 161 176 198 22 22 19 22 20 14 12 3 353
340 330 301 296 299 308 12 23 163 203 224 210 198 205 203 176 177 180 176 179 184 184 179 180 186 188 193 196 197 204 211 214 217 219 215 209 204 202 198 193 190 187 183 177 174 172 172 172 170 168 169 169 168 167 166 165 165 165 164 163 163 165 162 162 163 163 159 150 138 130 125 117 108 108 99 91 101 106 106 109 106 105 116 144 163 177 198 225 300 4 7 11 10 355 350 346 339
296 302 300 282 270 327 357 300 173 190 247 224 187 198 203 181 177 180 175 179 187 187 184 185 186 190 195 197 200 207 210 212 218 221 215 208 204 201 198 195 193 191 188 184 180 177 177 176 174 173 174 175 174 173 171 168 168 168 167 166 168 169 165 161 162 161 156 149 139 132 127 119 113 113 103 92 98 105 111 117 119 123 127 155 184 200 212 224 268 325 349 357 357 347 349 359 1
290 301 286 294 224 133 70 128 158 179 228 216 180 197 207 178 171 175 182 189 193 191 189 189 186 190 196 198 203 207 206 211 217 218 213 206 202 200 198 197 196 196 194 191 187 184 183 182 180 181 181 181 180 180 178 174 171 171 168 168 170 170 165 162 163 161 154 147 140 136 130 131 136 136 127 112 107 119 128 138 153 160 153 176 205 217 222 228 256 297 323 336 345 350 349 346 353
257 258 276 304 159 203 275 135 145 179 195 277 197 197 199 168 159 156 193 197 193 189 189 191 189 193 198 201 205 208 208 210 211 213 213 207 201 199 197 197 196 198 200 197 194 191 190 189 187 188 189 188 187 187 185 179 175 175 174 172 171 168 164 165 169 165 158 152 146 142 142 150 158 160 152 143 148 168 178 178 177 180 175 193 217 221 225 231 249 278 301 317 331 345 342 328 324
245 232 248 261 193 205 293 130 147 183 187 182 187 188 201 192 183 177 184 202 199 187 186 192 195 198 202 203 207 213 215 216 212 210 213 208 203 199 195 196 197 199 201 200 198 196 195 194 193 195 196 195 193 192 190 184 181 181 177 175 172 168 167 170 174 173 166 156 147 151 166 168 169 171 166 160 169 179 185 192 191 194 195 205 222 224 226 230 245 265 284 304 315 324 327 324 320
264 223 226 236 193 162 135 148 166 215 214 182 183 219 235 187 202 198 175 193 208 196 193 196 193 198 205 206 209 214 219 223 221 217 216 212 206 202 196 195 198 200 201 200 200 199 199 197 197 198 198 198 197 195 192 189 187 185 180 178 177 174 174 176 176 174 166 151 151 182 196 189 179 179 178 174 178 179 179 193 199 202 209 215 223 228 229 234 247 261 274 290 303 309 311 314 316
269 242 197 176 161 151 148 167 193 273 304 172 196 239 317 163 225 209 177 194 204 200 204 202 191 193 203 207 209 213 218 220 221 220 219 213 209 206 200 197 200 202 201 200 201 202 202 202 201 201 200 200 199 198 196 194 193 190 185 184 184 183 183 182 177 172 167 166 181 203 210 206 195 187 189 188 187 185 184 196 203 209 217 221 226 230 233 242 251 260 270 280 291 298 299 300 301
261 57 134 146 150 156 160 174 208 312 356 202 199 206 328 282 238 200 180 200 207 204 210 207 197 197 201 207 210 213 218 218 216 217 217 213 209 206 201 199 202 205 203 201 201 203 205 205 206 205 204 203 202 202 202 201 199 195 192 191 192 193 192 190 186 182 185 191 200 208 208 210 209 200 196 197 198 200 204 209 209 215 220 219 225 233 241 251 257 262 267 271 279 285 287 290 293
31 98 114 124 135 146 160 181 190 10 304 245 191 163 220 257 219 171 179 203 211 206 210 211 205 202 202 206 210 213 218 220 219 218 217 213 210 207 203 202 202 204 205 202 201 204 206 207 208 208 206 205 206 207 207 207 205 202 201 202 203 203 203 201 201 204 212 216 219 223 217 211 214 212 207 207 209 213 220 221 219 224 227 225 224 232 241 252 260 263 266 266 268 272 276 283 290
113 120 106 104 117 115 115 161 135 83 288 270 190 169 200 265 197 173 182 205 215 207 208 212 209 204 204 207 210 213 216 218 218 219 216 212 210 208 206 205 204 204 206 204 202 203 205 205 207 208 207 206 207 209 211 212 209 208 209 210 212 212 212 211 213 219 228 233 235 235 232 222 217 217 216 215 217 222 225 225 230 236 240 237 231 232 237 248 260 261 264 267 266 267 271 276 280
128 124 108 106 109 96 90 74 11 288 264 294 193 176 191 275 217 191 194 200 201 200 203 208 210 207 204 209 212 214 216 215 215 216 215 212 211 211 209 208 206 204 204 204 203 203 202 202 203 205 206 207 208 211 213 213 212 213 214 215 218 221 223 224 225 229 237 241 240 241 241 235 228 225 222 220 221 224 225 226 234 242 246 246 241 238 239 248 258 259 263 268 270 271 270 273 274
141 130 128 130 99 100 133 104 152 255 255 4 44 176 190 232 233 208 219 206 184 193 195 196 209 209 203 209 213 214 217 215 213 213 213 212 212 212 212 211 209 207 205 204 205 205 202 201 200 201 204 207 211 213 214 214 214 216 219 220 223 226 232 235 235 240 247 250 248 246 246 242 238 235 229 228 229 231 233 235 238 240 242 246 246 245 247 253 256 257 263 268 272 272 270 272 273
168 147 155 169 90 183 231 224 225 248 257 27 41 178 202 241 252 210 212 217 195 196 192 191 204 208 202 207 212 215 216 214 212 212 212 212 213 213 213 212 212 210 207 205 206 208 205 203 202 202 203 204 208 213 215 216 217 220 222 224 227 230 235 240 243 247 250 253 253 251 251 249 246 244 240 238 238 240 244 245 243 239 238 242 245 247 250 253 256 259 265 270 271 270 269 271 270
186 169 170 188 172 203 235 197 246 269 253 113 127 189 241 259 260 210 200 204 206 205 198 195 200 203 204 208 211 214 214 210 210 211 212 212 213 214 214 213 213 212 211 208 208 210 208 206 205 205 205 204 206 210 214 217 220 222 224 225 228 232 237 242 246 246 247 250 251 249 252 253 251 248 246 246 245 245 247 247 246 242 240 242 243 246 248 249 254 258 261 267 270 269 268 268 269
188 181 190 200 179 216 251 200 235 268 237 149 151 194 244 223 284 231 201 193 201 209 207 203 204 204 206 209 209 210 211 210 210 210 211 213 214 215 215 215 213 213 213 212 211 212 210 208 207 206 206 205 207 209 212 217 220 222 225 226 228 232 237 244 245 244 244 246 245 243 246 251 253 249 246 246 242 242 245 245 246 246 244 244 243 244 247 248 252 254 256 260 265 266 264 265 267
154 336 241 226 213 249 274 198 221 224 243 214 183 220 252 237 281 257 198 185 195 207 207 206 210 205 199 199 200 204 207 209 211 211 212 214 215 216 217 217 215 214 215 215 214 213 211 210 208 207 208 209 211 214 214 217 221 223 224 224 226 230 235 240 241 242 242 241 238 237 240 245 247 244 241 238 233 236 241 243 247 250 248 249 248 247 249 249 251 253 255 257 260 260 259 259 261
152 216 210 157 46 292 197 127 97 174 248 225 188 241 257 258 255 203 179 187 195 200 199 201 205 198 188 189 193 199 204 208 211 212 213 214 216 217 219 220 218 216 216 217 218 216 213 211 209 208 210 212 216 218 219 221 222 223 223 223 224 227 231 235 237 240 240 236 231 230 234 238 236 235 234 233 232 235 239 242 246 250 251 252 251 251 250 250 253 257 258 258 258 257 257 257 257
183 192 182 134 154 38 31 263 235 243 263 246 195 251 270 262 258 177 179 200 197 196 196 197 198 194 190 190 193 199 205 209 212 214 215 216 217 218 219 221 221 220 219 219 220 220 218 216 213 211 211 213 216 219 222 224 225 224 224 223 224 226 228 231 233 236 234 230 229 229 232 235 234 231 230 229 232 235 237 241 244 247 251 251 250 252 253 253 258 260 259 258 258 259 259 258 258
55 119 84 67 181 175 36 313 284 273 281 274 216 261 268 230 225 171 199 209 199 194 196 196 198 198 197 193 195 202 205 207 209 211 214 216 217 219 221 222 223 222 223 223 222 222 222 221 219 218 218 218 219 221 225 227 227 227 226 225 227 228 229 230 230 231 231 230 230 231 232 235 234 232 231 231 235 238 239 241 243 247 250 249 250 255 259 261 264 263 258 257 259 262 262 261 261
77 108 70 7 83 180 176 288 280 273 283 287 285 297 267 219 238 310 244 226 205 194 193 198 201 199 196 192 193 200 203 205 207 210 213 216 218 221 223 224 224 224 225 225 225 225 225 225 224 224 223 224 225 226 227 228 228 228 228 227 229 230 231 232 230 228 229 233 234 233 234 233 232 233 234 236 238 240 241 242 244 246 248 250 251 256 261 265 266 263 259 259 261 263 263 263 264
169 154 124 34 118 156 184 221 264 263 272 282 288 293 292 85 24 314 287 266 220 199 194 198 198 193 191 195 199 203 206 208 210 212 214 217 219 222 224 226 226 226 225 226 226 227 227 228 227 227 226 226 227 228 229 228 227 227 228 228 229 231 232 233 233 230 231 232 232 232 234 233 234 236 236 238 238 239 240 241 241 241 244 248 250 253 259 263 264 262 262 264 264 264 264 267 268
93 100 101 188 200 197 199 232 245 240 251 262 277 289 307 64 9 318 304 291 234 205 197 195 193 189 192 199 206 211 213 212 212 214 216 217 219 222 225 226 226 225 226 227 227 228 228 229 229 228 229 228 228 229 229 227 226 226 227 228 228 229 231 233 234 233 231 231 229 229 232 233 234 236 236 236 236 236 235 234 235 239 243 247 248 250 254 257 259 259 262 266 266 266 266 269 271